When you browse on this site, cookies collect data to enhance your experience and personalize the content and advertising you see.
Visit our Privacy Policy to learn more. By continuing to use the site, you agree to this use of cookies and data.
  • In United Kingdom
  • List of Countries
  • For 7 days
  • Water Temperature
  • Weather Map
  • Weather Widgets
  • user-avatar
    Login

    Hourly Weather Pomorie

    Today, 19 October, Saturday

    Time Temperature Precipitation Wind Pressure Humidity
    00:00 +15°C° 0 mm 0 mps 763 mmHg 91%
    01:00 +15°C° 0 mm 0 mps 763 mmHg 91%
    02:00 +14°C° 0 mm 0 mps 763 mmHg 91%
    03:00 +14°C° 0 mm 0 mps 763 mmHg 90%
    04:00 +14°C° 0 mm 0 mps 763 mmHg 90%
    05:00 +14°C° 0 mm 0 mps 763 mmHg 90%
    06:00 +15°C° 0 mm 0 mps 763 mmHg 87%
    07:00 +16°C° 0 mm 0 mps 764 mmHg 84%
    08:00 +16°C° 0 mm 0 mps 764 mmHg 81%
    09:00 +20°C° 0 mm 1 mps 764 mmHg 74%
    10:00 +22°C° 0 mm 1 mps 764 mmHg 66%
    11:00 +24°C° 0 mm 2 mps 764 mmHg 59%
    12:00 +24°C° 0 mm 2 mps 764 mmHg 58%
    13:00 +24°C° 0 mm 2 mps 764 mmHg 57%
    14:00 +25°C° 0 mm 3 mps 763 mmHg 56%
    15:00 +22°C° 0 mm 3 mps 763 mmHg 64%
    16:00 +21°C° 0 mm 3 mps 763 mmHg 71%
    17:00 +20°C° 0 mm 3 mps 763 mmHg 79%
    18:00 +19°C° 0 mm 2 mps 763 mmHg 82%
    19:00 +18°C° 0 mm 2 mps 764 mmHg 86%
    20:00 +17°C° 0 mm 2 mps 764 mmHg 90%
    21:00 +17°C° 0 mm 2 mps 764 mmHg 90%
    22:00 +16°C° 0 mm 2 mps 764 mmHg 90%
    23:00 +16°C° 0 mm 1 mps 765 mmHg 90%

    Tomorrow, 20 October, Sunday

    Time Temperature Precipitation Wind Pressure Humidity
    00:00 +16°C° 0 mm 1 mps 765 mmHg 90%
    01:00 +16°C° 0 mm 1 mps 765 mmHg 90%
    02:00 +15°C° 0 mm 1 mps 765 mmHg 90%
    03:00 +14°C° 0 mm 0 mps 765 mmHg 90%
    04:00 +14°C° 0 mm 0 mps 765 mmHg 90%
    05:00 +14°C° 0 mm 0 mps 765 mmHg 89%
    06:00 +15°C° 0 mm 0 mps 765 mmHg 86%
    07:00 +16°C° 0 mm 0 mps 765 mmHg 83%
    08:00 +18°C° 0 mm 1 mps 765 mmHg 80%
    09:00 +20°C° 0 mm 1 mps 765 mmHg 73%
    10:00 +21°C° 0 mm 2 mps 766 mmHg 65%
    11:00 +23°C° 0 mm 2 mps 766 mmHg 58%
    12:00 +24°C° 0 mm 2 mps 765 mmHg 57%
    13:00 +24°C° 0 mm 3 mps 765 mmHg 56%
    14:00 +24°C° 0 mm 3 mps 765 mmHg 55%
    15:00 +22°C° 0 mm 3 mps 765 mmHg 62%
    16:00 +20°C° 0 mm 2 mps 765 mmHg 69%
    17:00 +19°C° 0 mm 2 mps 765 mmHg 75%
    18:00 +18°C° 0 mm 2 mps 765 mmHg 80%
    19:00 +17°C° 0 mm 2 mps 765 mmHg 84%
    20:00 +16°C° 0 mm 2 mps 766 mmHg 88%
    21:00 +16°C° 0 mm 2 mps 766 mmHg 89%
    22:00 +16°C° 0 mm 1 mps 766 mmHg 89%
    23:00 +15°C° 0 mm 1 mps 766 mmHg 90%

    Day after tomorrow, 21 October, Monday

    Time Temperature Precipitation Wind Pressure Humidity
    00:00 +15°C° 0 mm 1 mps 766 mmHg 90%
    01:00 +14°C° 0 mm 0 mps 766 mmHg 90%
    02:00 +14°C° 0 mm 0 mps 766 mmHg 91%
    03:00 +13°C° 0 mm 0 mps 766 mmHg 91%
    04:00 +13°C° 0 mm 0 mps 766 mmHg 91%
    05:00 +14°C° 0 mm 1 mps 766 mmHg 91%
    06:00 +15°C° 0 mm 1 mps 766 mmHg 87%
    07:00 +16°C° 0 mm 1 mps 766 mmHg 84%
    08:00 +18°C° 0 mm 1 mps 766 mmHg 81%
    09:00 +19°C° 0 mm 1 mps 766 mmHg 74%
    10:00 +20°C° 0 mm 2 mps 766 mmHg 67%
    11:00 +23°C° 0 mm 2 mps 766 mmHg 59%
    12:00 +23°C° 0 mm 2 mps 766 mmHg 58%
    13:00 +24°C° 0 mm 3 mps 766 mmHg 57%
    14:00 +24°C° 0 mm 3 mps 766 mmHg 56%
    15:00 +22°C° 0 mm 3 mps 766 mmHg 63%
    16:00 +20°C° 0 mm 3 mps 766 mmHg 70%
    17:00 +19°C° 0 mm 2 mps 765 mmHg 77%
    18:00 +18°C° 0 mm 2 mps 766 mmHg 81%
    19:00 +17°C° 0 mm 2 mps 766 mmHg 84%
    20:00 +16°C° 0 mm 1 mps 766 mmHg 88%
    21:00 +16°C° 0 mm 1 mps 766 mmHg 88%
    22:00 +16°C° 0 mm 1 mps 766 mmHg 88%
    23:00 +16°C° 0 mm 1 mps 766 mmHg 88%

    22 October, Tuesday

    Time Temperature Precipitation Wind Pressure Humidity
    00:00 +16°C° 0 mm 1 mps 766 mmHg 88%
    01:00 +15°C° 0 mm 2 mps 766 mmHg 88%
    02:00 +15°C° 0 mm 2 mps 766 mmHg 88%
    03:00 +15°C° 0 mm 2 mps 766 mmHg 88%
    04:00 +15°C° 0 mm 2 mps 766 mmHg 87%
    05:00 +15°C° 0 mm 2 mps 766 mmHg 87%
    06:00 +16°C° 0 mm 2 mps 766 mmHg 83%
    07:00 +16°C° 0 mm 2 mps 766 mmHg 79%
    08:00 +17°C° 0 mm 2 mps 766 mmHg 75%
    09:00 +19°C° 0 mm 3 mps 766 mmHg 64%
    10:00 +21°C° 0 mm 3 mps 766 mmHg 54%
    11:00 +24°C° 0 mm 3 mps 766 mmHg 44%
    12:00 +23°C° 0 mm 4 mps 766 mmHg 44%
    13:00 +23°C° 0 mm 5 mps 766 mmHg 45%
    14:00 +25°C° 0 mm 5 mps 765 mmHg 46%
    15:00 +22°C° 0 mm 5 mps 765 mmHg 53%
    16:00 +21°C° 0 mm 4 mps 765 mmHg 61%
    17:00 +19°C° 0 mm 4 mps 765 mmHg 69%
    18:00 +18°C° 0 mm 4 mps 765 mmHg 75%
    19:00 +17°C° 0 mm 3 mps 765 mmHg 80%
    20:00 +16°C° 0 mm 3 mps 766 mmHg 86%
    21:00 +16°C° 0 mm 3 mps 766 mmHg 87%
    22:00 +16°C° 0 mm 3 mps 766 mmHg 88%
    23:00 +14°C° 0 mm 3 mps 766 mmHg 89%

    23 October, Wednesday

    Time Temperature Precipitation Wind Pressure Humidity
    00:00 +14°C° 0 mm 3 mps 766 mmHg 88%
    01:00 +14°C° 0 mm 3 mps 766 mmHg 88%
    02:00 +13°C° 0 mm 3 mps 765 mmHg 88%
    03:00 +13°C° 0 mm 3 mps 765 mmHg 87%
    04:00 +13°C° 0 mm 3 mps 765 mmHg 87%
    05:00 +12°C° 0 mm 3 mps 765 mmHg 86%
    06:00 +13°C° 0 mm 3 mps 766 mmHg 83%
    07:00 +14°C° 0 mm 4 mps 766 mmHg 80%
    08:00 +14°C° 0 mm 4 mps 766 mmHg 77%
    09:00 +17°C° 0 mm 4 mps 766 mmHg 71%
    10:00 +19°C° 0 mm 4 mps 766 mmHg 65%
    11:00 +20°C° 0 mm 5 mps 766 mmHg 59%
    12:00 +21°C° 0 mm 5 mps 766 mmHg 58%
    13:00 +21°C° 0 mm 5 mps 765 mmHg 57%
    14:00 +22°C° 0 mm 5 mps 765 mmHg 56%
    15:00 +21°C° 0 mm 4 mps 765 mmHg 62%
    16:00 +19°C° 0 mm 4 mps 765 mmHg 68%
    17:00 +18°C° 0 mm 4 mps 765 mmHg 74%
    18:00 +17°C° 0 mm 4 mps 765 mmHg 79%
    19:00 +15°C° 0 mm 4 mps 765 mmHg 83%
    20:00 +14°C° 0 mm 4 mps 765 mmHg 88%
    21:00 +14°C° 0 mm 3 mps 765 mmHg 89%
    22:00 +14°C° 0 mm 3 mps 766 mmHg 90%
    23:00 +13°C° 0 mm 3 mps 766 mmHg 91%

    24 October, Thursday

    Time Temperature Precipitation Wind Pressure Humidity
    00:00 +13°C° 0 mm 3 mps 766 mmHg 91%
    01:00 +13°C° 0 mm 3 mps 765 mmHg 91%
    02:00 +12°C° 0 mm 3 mps 765 mmHg 91%
    03:00 +12°C° 0 mm 3 mps 765 mmHg 91%
    04:00 +12°C° 0 mm 3 mps 765 mmHg 91%
    05:00 +12°C° 0 mm 3 mps 765 mmHg 90%
    06:00 +12°C° 0 mm 3 mps 765 mmHg 87%
    07:00 +13°C° 0 mm 3 mps 765 mmHg 83%
    08:00 +13°C° 0 mm 3 mps 765 mmHg 79%
    09:00 +16°C° 0 mm 3 mps 765 mmHg 72%
    10:00 +18°C° 0 mm 3 mps 765 mmHg 66%
    11:00 +20°C° 0 mm 3 mps 765 mmHg 59%
    12:00 +21°C° 0 mm 4 mps 765 mmHg 58%
    13:00 +21°C° 0 mm 4 mps 765 mmHg 57%
    14:00 +22°C° 0 mm 4 mps 764 mmHg 56%
    15:00 +21°C° 0 mm 4 mps 764 mmHg 64%
    16:00 +19°C° 0 mm 4 mps 764 mmHg 71%
    17:00 +18°C° 0 mm 4 mps 764 mmHg 79%
    18:00 +17°C° 0 mm 3 mps 764 mmHg 83%
    19:00 +17°C° 0 mm 3 mps 764 mmHg 87%
    20:00 +16°C° 0 mm 3 mps 765 mmHg 91%
    21:00 +15°C° 0 mm 2 mps 765 mmHg 91%
    22:00 +15°C° 0 mm 2 mps 765 mmHg 91%
    23:00 +15°C° 0 mm 2 mps 765 mmHg 91%
    Show more